軌道要素
Epoch 2013 Dec. 14.0 TT = JDT 2456640.5
T 2013 Dec. 10.97071 TT MPCW
q 3.3531091 (2000.0) P Q
n 0.05465580 Peri. 51.24187 +0.04522084 +0.99698025
a 6.8766755 Node 221.48483 -0.94356517 +0.02187253
e 0.5123939 Incl. 5.46873 -0.32808512 +0.07451154
P 18.0
From 230 observations 2013 Apr. 2-2014 Dec. 10, mean residual 0".5.
|